Flag for Germany Weather past 2 weeks in Darmstadt, Hesse, Germany

Now
72 °F

Passing clouds.


Feels Like: 75 °F
Forecast: 59 / 79 °F
Wind: 5 mph from Southeast

Location: Frankfurt-M-Flughafen Airport

Current Time: Jul 25, 2014 at 12:03:14 PM

Latest Report: Jul 25, 2014 at 11:20 AM


Visibility: N/A

Pressure: 29.95 "Hg

Humidity: 65%

Dew point: 59 °F

Location of DarmstadtLocation

Historic Weather in Darmstadt — Graph

°F

Darmstadt temperature yesterday

Maximum temperature yesterday: 81 °F (at 1:50 PM)
Minimum temperature yesterday: 64 °F (at 4:50 AM)
Average temperature yesterday: 72 °F

Past Weeks' High & Low Weather Summary

 TemperatureHumidityPressure
High93 °F (Jul 19, 4:20 PM)100% (Jul 10, 8:50 PM)30.18 "Hg (Jul 10, 8:50 PM)
Low57 °F (Jul 11, 3:20 AM)23% (Jul 18, 6:20 PM)29.77 "Hg (Jul 13, 4:20 PM)
Average72 °F69%29.96 "Hg
* Reported Jul 10 10:20 AM — Jul 25 10:50 AM, Darmstadt, Weather by CustomWeather, © 2014

Note: Actual official high and low records may vary slightly from our data, if they occured in-between our weather recording intervals... More about our weather records

Advertising

Darmstadt weather history for previous 24 hours

 ConditionsComfort  
Time TempWeatherWind HumidityBarometerVisibility
10:50 AM
Jul 25
70 °FPassing clouds.6 mph64%29.95 "HgN/A
10:20 AM70 °FPassing clouds.6 mph64%29.95 "HgN/A
9:50 AM68 °FPassing clouds.7 mph69%29.95 "HgN/A
9:20 AM66 °FPassing clouds.7 mph73%29.95 "HgN/A
8:50 AM66 °FPassing clouds.7 mph78%29.95 "HgN/A
8:20 AM64 °FPassing clouds.9 mph78%29.95 "HgN/A
7:50 AM64 °FPassing clouds.9 mph83%29.95 "HgN/A
7:20 AM61 °FPassing clouds.9 mph88%29.95 "HgN/A
6:50 AM61 °FPassing clouds.13 mph88%29.95 "HgN/A
6:20 AM61 °FPassing clouds.12 mph88%29.95 "HgN/A
5:50 AM61 °FClear.10 mph88%29.95 "Hg10 mi
5:20 AM61 °FClear.10 mph94%29.95 "Hg10 mi
4:50 AM61 °FClear.12 mph94%29.95 "Hg10 mi
4:20 AM61 °FClear.12 mph94%29.95 "Hg10 mi
3:50 AM61 °FClear.10 mph94%29.95 "Hg10 mi
3:20 AM61 °FClear.12 mph94%29.95 "Hg10 mi
2:50 AM63 °FClear.12 mph94%29.95 "Hg10 mi
2:20 AM63 °FLight fog.13 mph94%29.95 "HgN/A
1:50 AM63 °FPassing clouds.8 mph94%29.95 "HgN/A
1:20 AM64 °FPassing clouds.10 mph88%29.95 "HgN/A
12:50 AM64 °FPassing clouds.9 mph94%29.95 "HgN/A
12:20 AM64 °FSprinkles. Passing clouds.9 mph88%29.95 "HgN/A
11:50 PM
Jul 24
66 °FSprinkles. Passing clouds.14 mph83%29.95 "HgN/A
11:20 PM66 °FThunderstorms. Partly cloudy.10 mph83%29.95 "HgN/A
10:50 PM70 °FThunderstorms. Partly cloudy.9 mph64%29.95 "HgN/A
10:20 PM70 °FThunderstorms. Partly cloudy.5 mph64%29.95 "HgN/A
9:50 PM70 °FThundershowers. Broken clouds.5 mph64%29.95 "HgN/A
9:20 PM70 °FThundershowers. Broken clouds.9 mph64%29.92 "HgN/A
8:50 PM70 °FThundershowers. Partly sunny.14 mph64%29.92 "HgN/A
8:20 PM72 °FPartly sunny.14 mph57%29.92 "HgN/A
7:50 PM72 °FBroken clouds.8 mph57%29.92 "HgN/A
7:20 PM73 °FBroken clouds.8 mph57%29.89 "HgN/A
6:50 PM75 °FBroken clouds.9 mph50%29.89 "HgN/A
6:20 PM73 °FScattered showers. Broken clouds.13 mph53%29.89 "HgN/A
5:50 PM73 °FScattered showers. Broken clouds.13 mph44%29.92 "HgN/A
5:20 PM77 °FThunderstorms. Broken clouds.21 mph39%29.92 "HgN/A
4:50 PM81 °FScattered showers. Broken clouds.12 mph37%29.89 "HgN/A
4:20 PM81 °FScattered showers. Broken clouds.12 mph42%29.92 "HgN/A
3:50 PM79 °FScattered showers. Scattered clouds.10 mph42%29.92 "HgN/A
3:20 PM77 °FSprinkles. Scattered clouds.14 mph44%29.92 "HgN/A
2:50 PM79 °FScattered showers. Scattered clouds.2 mph42%29.92 "HgN/A
2:20 PM81 °FScattered showers. Passing clouds.8 mph37%29.92 "HgN/A
1:50 PM81 °FPassing clouds.10 mph37%29.92 "HgN/A
1:20 PM79 °FSunny.8 mph45%29.92 "Hg10 mi
12:50 PM79 °FSunny.10 mph42%29.92 "Hg10 mi
12:20 PM77 °FSunny.10 mph44%29.95 "Hg10 mi
Weather by CustomWeather, © 2014

See weather overviewHow to use our weather pages